Simultaneous Nadir Overpasses (SNOs) Predictions

Prediction of SNOs between NOAA-20 and LANDSAT-8 Satellite Orbit:

Table of predicted SNOs for the next 14.0 days since TLE Epoch: 3/2/2019
Index Date (NOAA-20) Time (NOAA-20) Lat,Lon (NOAA-20) SZA (NOAA-20 ) Date (LANDSAT-8) Time (LANDSAT-8) Lat,Lon (LANDSAT-8) SZA (LANDSAT-8 ) Distance(km) Time Diff (sec)
1 03/02/2019 14:15:53 -70.18, 142.22 102.62 03/02/2019 14:16:52 -70.18, 142.24 102.63 0.56 59
2 03/02/2019 15:06:37 70.06, -50.28 77.25 03/02/2019 15:06:19 70.08, -50.27 77.26 2.11 18
3 03/02/2019 15:57:08 -69.39, 118.02 103.47 03/02/2019 15:55:58 -69.47, 116.53 103.32 58.89 70
4 03/05/2019 06:32:48 -70.15,-101.96 103.68 03/05/2019 06:33:20 -70.14,-101.94 103.70 1.18 32
5 03/05/2019 07:23:32 70.03, 65.53 76.18 03/05/2019 07:22:47 70.04, 65.55 76.19 0.98 45
6 03/07/2019 21:59:06 70.42,-153.93 75.58 03/07/2019 22:00:17 70.32,-153.44 75.44 21.53 71
7 03/07/2019 22:49:44 -70.12, 13.86 104.76 03/07/2019 22:49:49 -70.10, 13.88 104.78 2.41 5
8 03/07/2019 23:40:28 70.00,-178.65 75.11 03/07/2019 23:39:16 69.99,-178.63 75.11 1.50 72
9 03/10/2019 14:15:58 70.19, -37.79 74.27 03/10/2019 14:16:48 70.16, -37.79 74.24 2.39 50
10 03/10/2019 15:06:39 -70.04, 129.75 105.90 03/10/2019 15:06:18 -70.06, 129.70 105.88 2.81 21
11 03/10/2019 15:57:06 69.02, -61.46 73.03 03/10/2019 15:56:00 69.12, -63.93 73.23 98.90 66
12 03/13/2019 06:32:54 70.16, 78.03 73.19 03/13/2019 06:33:16 70.17, 78.10 73.19 3.17 22
13 03/13/2019 07:23:35 -70.02,-114.43 106.98 03/13/2019 07:22:47 -70.01,-114.49 106.98 2.13 48
14 03/15/2019 21:59:05 -70.25, 26.35 107.77 03/15/2019 22:00:17 -70.23, 26.43 107.80 3.37 72
15 03/15/2019 22:49:49 70.14,-166.17 72.10 03/15/2019 22:49:44 70.12,-166.09 72.08 3.53 5
16 03/15/2019 23:40:28 -69.89, 1.54 108.18 03/15/2019 23:39:16 -69.91, 1.25 108.14 11.43 72




NCC Satellite Simultaneous Nadir Overpasses (SNOs) Prediction Service
